Weather History for Beckley, WV

Change the Weather History Date:

Thursday, February 7, 2013

  Actual Average Record
Temperature  
Mean Temperature 38 °F 33 °F  
Max Temperature 43 °F 41 °F 70 °F (1918)
Min Temperature 33 °F 24 °F -9 °F (1912)
Degree Days  
Heating Degree Days 27 32  
Month to date heating degree days 252 228  
Since 1 July heating degree days 3168 3372  
Cooling Degree Days 0 0  
Month to date cooling degree days 0 0  
Year to date cooling degree days 0 0  
Moisture  
Dew Point 28 °F    
Average Humidity 69    
Maximum Humidity 85    
Minimum Humidity 52    
Precipitation  
Precipitation 0.00 in 0.10 in 1.03 in (1955)
Month to date precipitation 0.30 0.67  
Year to date precipitation 5.07 3.48  
Snow  
Snow 0.00 in - - ()
Month to date snowfall 6.3  
Since 1 September snowfall 48.7  
Snow Depth 0.00 in    
Sea Level Pressure  
Sea Level Pressure 30.16 in    
Wind  
Wind Speed 10 mph (SE)    
Max Wind Speed 16 mph    
Max Gust Speed 25 mph    
Visibility 10 miles    
Events      
T = Trace of Precipitation, MM = Missing Value Source: NWS Daily Summary

Daily Weather History Graph

Daily Weather History Graph

Search for Another Location

Airport:

Trip Planner

Search our weather history database for the weather conditions in past years. The results will help you decide how hot, cold, wet, or windy it might be!

Date:

Astronomy

Feb. 07, 2013 Rise Set
Actual Time 7:22 AM EST 5:55 PM EST
Civil Twilight 6:55 AM EST 6:22 PM EST
Nautical Twilight 6:24 AM EST 6:53 PM EST
Astronomical Twilight 5:53 AM EST 7:24 PM EST
Moon 4:59 AM EST (2/7) 3:19 PM EST (2/7)
Length of Visible Light 11h 26m
Length of Day
10h 32m
Waning Crescent, 9% of the Moon is Illuminated
Feb 7
Waning Crescent
Feb 10
New
Feb 17
First Quarter
Feb 25
Full
Mar 4
Last Quarter

Hourly Weather History & Observations

Time (EST) Temp. Windchill Dew Point Humidity Pressure Visibility Wind Dir Wind Speed Gust Speed Precip Events Conditions
12:51 AM 36.0 °F 30.3 °F 25.0 °F 64% 30.25 in 10.0 mi SE 6.9 mph - N/A   Clear
1:51 AM 37.0 °F 31.0 °F 23.0 °F 57% 30.22 in 10.0 mi SE 8.1 mph - N/A   Clear
2:51 AM 37.0 °F 29.3 °F 23.0 °F 57% 30.21 in 10.0 mi SSE 11.5 mph - N/A   Clear
3:51 AM 37.0 °F 28.9 °F 21.9 °F 54% 30.19 in 10.0 mi SSE 12.7 mph - N/A   Clear
4:51 AM 37.0 °F 28.9 °F 21.9 °F 54% 30.22 in 10.0 mi SSE 12.7 mph 25.3 mph N/A   Clear
5:51 AM 36.0 °F 27.5 °F 23.0 °F 59% 30.24 in 10.0 mi SE 12.7 mph 23.0 mph N/A   Partly Cloudy
6:51 AM 35.1 °F 25.9 °F 24.1 °F 64% 30.26 in 10.0 mi SSE 13.8 mph 21.9 mph N/A   Scattered Clouds
7:51 AM 34.0 °F 27.2 °F 25.0 °F 70% 30.27 in 10.0 mi SE 8.1 mph - N/A   Mostly Cloudy
8:51 AM 34.0 °F 28.8 °F 26.1 °F 73% 30.27 in 10.0 mi Variable 5.8 mph - N/A   Overcast
9:51 AM 36.0 °F 28.5 °F 27.0 °F 70% 30.26 in 10.0 mi SE 10.4 mph 18.4 mph N/A   Partly Cloudy
10:51 AM 37.0 °F 32.4 °F 28.0 °F 70% 30.25 in 10.0 mi Variable 5.8 mph 17.3 mph N/A   Clear
11:51 AM 39.0 °F 32.8 °F 28.9 °F 67% 30.22 in 10.0 mi SE 9.2 mph 18.4 mph N/A   Clear
12:51 PM 39.9 °F 32.5 °F 30.0 °F 68% 30.18 in 10.0 mi SE 12.7 mph 18.4 mph N/A   Clear
1:51 PM 41.0 °F 36.4 °F 30.9 °F 67% 30.15 in 10.0 mi ESE 6.9 mph - N/A   Clear
2:51 PM 42.1 °F 36.1 °F 30.9 °F 65% 30.12 in 10.0 mi ESE 10.4 mph 17.3 mph N/A   Clear
3:51 PM 42.1 °F 36.6 °F 30.9 °F 65% 30.11 in 10.0 mi SSE 9.2 mph 19.6 mph N/A   Clear
4:51 PM 39.9 °F 32.9 °F 30.9 °F 70% 30.12 in 10.0 mi SSE 11.5 mph 23.0 mph N/A   Clear
5:51 PM 39.0 °F 32.3 °F 30.9 °F 73% 30.10 in 10.0 mi SE 10.4 mph 18.4 mph N/A   Clear
6:51 PM 39.0 °F 31.4 °F 32.0 °F 76% 30.10 in 10.0 mi SSE 12.7 mph 23.0 mph N/A   Clear
7:51 PM 37.9 °F 30.0 °F 33.1 °F 83% 30.10 in 10.0 mi SE 12.7 mph 20.7 mph N/A   Partly Cloudy
8:51 PM 37.9 °F 30.9 °F 33.1 °F 83% 30.08 in 10.0 mi SSE 10.4 mph 18.4 mph N/A   Overcast
9:51 PM 39.0 °F 31.8 °F 33.1 °F 79% 30.06 in 10.0 mi SE 11.5 mph 19.6 mph N/A   Overcast
10:51 PM 37.0 °F 29.3 °F 33.1 °F 86% 30.04 in 10.0 mi SE 11.5 mph 21.9 mph N/A   Overcast
11:00 PM 37.4 °F 30.8 °F 33.8 °F 87% 29.99 in 10.0 mi SSE 9.2 mph 18.4 mph N/A   Overcast
11:48 PM 35.6 °F 28.0 °F 32.0 °F 87% 29.97 in 10.0 mi SE 10.4 mph - N/A   Overcast
11:51 PM 36.0 °F 28.5 °F 32.0 °F 86% 30.01 in 10.0 mi ESE 10.4 mph - N/A   Overcast